Location: Napier
(39.4830°S, 176.9170°E)
Time: 02:19:38
(UTC+13:00)

Cosmos 1606 - Pass Details

Date: 24 January 2019
Orbit: 506 x 528 km, 82.5° (Epoch: 16 February)

Event Time Altitude Azimuth Distance (km) Brightness Sun altitude
Exits shadow 23:25:34 49° 260° (W) 702 3.5 -25.1°
Maximum altitude 23:25:35 49° 260° (W) 702 3.5 -25.1°
Drops below altitude 10° 23:29:27 10° 184° (S) 1,808 6.3 -25.5°
Sets 23:31:41 0° 178° (S) 2,705 7.2 -25.7°
